Tracking 18945 objects as of 20-Jan-2018
HD Live streaming from Space Station
objects crossing your sky now

FENGYUN 1C DEB

Track FENGYUN 1C DEB now!
10-day predictions


NORAD ID: 30641
Int'l Code: 1999-025ANY
Perigee: 569.6 km
Apogee: 820.0 km
Inclination: 99.0 °
Period: 98.5 minutes
Semi major axis: 7065 km
RCS: 0.0235 m2 (small)
Launch date: May 10, 1999
Source: People's Republic of China (PRC)
Launch site: Taiyaun Space Center, China (TSC)

Note: This is SATELLITE DEBRIS
aabbcc
Your satellite tracking list
Your tracking list is empty




NASA's NSSDC Master Catalog

Two Line Element Set (TLE):
1 30641U 99025ANY 18019.94224580  .00000432  00000-0  80375-4 0  9998
2 30641  99.0052  12.3405 0177201   8.4800  21.4579 14.61719544583123
Source of the keplerian elements: AFSPC